Location: Maccacari
(45.1333°N, 11.1333°E)
Time: 13:45:58
(UTC+00:00)

SR - Pass Details

Date: 27 June 2021
Orbit: 577 x 878 km, 66.7° (Epoch: 24 July)

Event Time Altitude Azimuth Distance (km) Brightness Sun altitude
Rises 22:44:58 0° 325° (NW) 3,263 ? -21.2°
Reaches altitude 10° 22:47:29 10° 323° (NW) 2,283 ? -21.2°
Maximum altitude 22:52:37 66° 242° (WSW) 770 ? -21.3°
Enters shadow 22:53:34 53° 189° (S) 854 ? -21.3°
